GFSSE_500_rhum_072.txt.gz
RH
84 97 94 98 72 90 89 91 73 67 62 91 97 69 82 82 68 57 52 53 54 54 57 60 60 60 60 57 52 41 35 34 34 36 39 35 32 22 15 13 12 11 12
93 98 94 98 90 84 83 87 85 66 63 77 93 83 63 68 74 66 59 63 61 61 62 56 55 48 46 44 40 38 35 35 33 37 41 37 31 24 19 16 16 15 17
97 95 94 80 82 70 74 85 54 72 90 99 76 78 67 78 77 63 61 58 59 59 58 54 50 48 42 43 39 40 37 34 33 37 39 33 33 25 15 16 16 18 22
88 96 93 82 61 69 74 61 56 59 64 73 69 90 74 75 78 76 72 72 66 62 58 52 48 56 40 38 39 43 42 37 34 36 32 28 27 22 18 21 22 22 21
66 81 89 90 90 57 53 66 62 62 64 58 91 88 97 86 72 70 75 74 68 67 63 55 48 40 42 46 47 46 48 41 30 39 34 23 23 22 22 24 24 21 15
74 73 69 76 66 50 51 53 59 80 52 83 96 91 97 80 70 72 68 73 72 72 66 66 62 58 56 59 55 53 58 51 45 46 37 36 27 24 24 25 23 16 12
42 66 68 96 95 96 97 100 96 81 71 68 78 97 97 70 64 55 71 77 75 72 67 60 66 65 62 61 60 61 68 55 35 54 52 47 27 26 26 24 17 12 7
34 60 62 61 61 59 85 89 95 95 93 93 88 92 95 78 92 62 77 73 73 77 79 75 76 72 68 70 76 70 73 66 94 90 76 43 37 28 25 20 13 7 8
72 72 57 58 82 90 75 88 84 61 72 93 87 94 87 94 72 80 68 74 70 85 88 88 86 84 82 89 91 76 84 95 86 76 42 42 26 29 28 18 8 8 8
83 70 59 70 78 92 96 96 87 92 94 97 94 97 94 87 95 83 64 70 69 96 95 90 93 86 88 84 92 95 86 85 88 50 37 28 31 33 30 18 7 10 8
69 81 91 98 96 95 89 92 75 63 96 97 90 94 98 95 84 83 66 76 76 96 96 92 95 92 96 100 94 96 94 97 67 34 40 35 37 37 33 20 8 10 8
66 59 72 83 70 59 62 47 72 94 96 96 97 95 96 97 96 96 77 82 87 96 96 94 93 97 98 99 94 96 99 92 70 65 40 43 44 42 34 14 10 9 9
60 49 51 52 51 53 52 50 83 96 97 96 96 96 96 96 96 94 78 81 90 97 96 93 92 98 95 94 91 96 100 98 71 43 46 50 54 45 19 10 11 9 9
43 38 38 43 46 46 47 52 73 97 96 97 96 95 95 96 96 93 87 68 87 100 98 98 95 95 96 92 87 94 96 77 52 50 58 55 55 36 14 10 11 9 9
30 39 42 43 45 44 45 52 84 96 97 93 86 96 96 93 95 95 94 77 96 97 100 100 99 97 98 96 87 93 91 76 52 60 53 47 33 17 13 12 10 9 9
43 31 33 49 56 44 41 47 66 88 94 85 86 96 99 96 93 94 96 97 97 100 100 99 98 94 97 94 87 84 75 59 62 43 31 21 16 14 12 11 9 9 8
36 32 60 52 44 39 42 44 40 100 98 99 97 96 94 97 98 95 97 97 96 96 93 100 100 95 99 96 85 75 61 76 53 28 21 18 14 13 13 13 12 12 12
43 65 46 38 30 36 41 40 38 97 96 96 94 95 98 99 96 97 98 96 99 94 99 100 100 97 92 94 78 64 76 74 47 29 20 16 16 19 26 28 27 33 38
68 56 44 31 30 34 51 53 88 98 96 96 91 94 96 96 94 94 97 97 97 99 98 99 95 96 94 94 84 78 50 30 24 20 16 14 18 27 33 44 52 55 58
56 48 47 41 49 79 99 95 99 97 97 97 87 90 95 96 96 97 97 96 97 97 98 95 90 96 97 98 71 46 30 24 22 18 18 27 28 27 44 53 59 66 69
44 24 33 51 62 65 77 72 98 96 100 99 90 98 99 95 100 98 97 98 99 100 100 95 98 95 99 97 93 64 23 25 22 18 17 17 24 48 72 75 67 72 79
44 24 16 39 60 85 84 64 54 70 98 84 99 99 100 100 100 93 95 99 98 100 99 94 96 99 96 97 83 36 23 22 19 16 17 19 40 43 62 70 63 66 66
40 29 16 12 23 50 61 66 79 89 94 99 99 98 98 98 100 100 100 99 99 98 96 98 97 94 90 68 56 33 22 20 18 23 48 57 67 70 74 73 72 58 65
23 28 14 12 10 13 16 23 40 54 74 100 98 97 94 87 89 92 99 95 96 95 98 88 88 89 81 75 52 34 23 32 50 63 64 60 61 63 61 54 36 20 20
14 14 13 13 14 12 17 22 21 23 30 51 71 84 91 94 93 88 82 98 89 92 97 93 97 96 96 96 76 63 66 65 59 54 50 56 53 51 28 10 13 18 15
27 18 19 24 24 22 18 17 21 26 36 44 50 55 62 70 81 85 82 76 77 93 96 90 98 89 91 74 83 83 79 70 61 55 35 27 30 11 10 14 18 13 12

GFSSE_500_rhum_075.txt.gz
RH
10 34 55 51 63 50 86 95 76 58 84 74 73 94 88 92 61 55 55 51 51 56 60 58 56 52 56 57 59 54 44 35 32 32 32 35 36 35 29 19 15 14 12
28 38 67 69 72 84 82 72 91 89 92 88 70 82 95 92 90 75 64 57 52 54 58 60 54 55 50 46 42 38 38 34 32 30 32 36 37 36 27 19 17 17 17
50 71 83 80 75 80 80 64 75 83 74 66 72 75 91 94 80 57 61 55 57 56 55 57 55 54 49 43 40 36 36 38 34 33 33 37 32 31 20 17 22 21 21
62 91 87 82 80 56 54 63 63 64 66 65 67 83 83 90 81 67 63 60 62 61 58 55 53 49 56 52 44 49 48 42 36 26 25 33 25 28 28 23 26 26 24
84 71 81 62 63 80 51 58 50 54 60 62 78 74 84 88 93 76 71 70 70 63 59 60 55 49 46 47 54 50 52 46 32 21 24 42 41 41 37 29 30 27 22
70 80 81 57 60 83 96 88 99 79 60 52 56 70 65 98 92 82 80 80 66 63 66 68 66 67 54 54 61 62 61 52 44 31 45 52 49 42 35 31 28 23 17
89 96 84 84 82 52 71 94 73 63 85 76 64 61 92 96 97 94 93 63 66 60 68 70 71 75 76 74 77 72 71 66 61 48 56 62 58 42 30 26 25 18 13
64 44 95 71 87 93 97 95 95 96 95 95 94 60 70 96 97 97 84 65 53 58 70 77 90 83 82 76 74 74 78 72 66 69 88 76 71 30 30 24 18 13 9
64 67 88 97 94 96 97 96 92 96 97 94 96 85 88 92 93 97 85 67 65 65 73 76 85 78 81 86 82 87 96 90 74 82 99 84 37 35 26 26 18 11 6
80 89 98 97 96 91 93 97 94 93 90 96 89 93 82 94 95 96 84 69 60 63 69 70 78 88 91 88 91 88 90 97 84 95 97 71 36 36 28 31 20 9 9
80 91 90 97 96 96 88 81 90 88 86 91 96 94 91 95 95 97 97 88 69 65 66 78 84 92 95 94 97 88 94 100 92 92 92 38 36 32 33 27 17 9 10
68 83 86 90 83 95 77 74 64 54 77 88 86 96 93 98 97 97 96 90 76 75 70 78 84 92 93 95 96 92 93 94 99 98 63 32 37 36 33 28 28 14 11
38 60 71 79 85 84 66 54 48 77 98 98 100 89 95 98 98 97 96 94 83 79 74 74 97 94 90 97 98 95 94 95 99 83 44 55 40 40 44 43 32 13 11
40 26 36 42 59 55 51 46 45 93 97 96 95 98 98 97 98 97 94 94 90 80 77 88 94 93 96 96 96 97 96 87 95 92 86 52 50 51 54 42 17 12 12
35 25 25 36 43 44 44 42 44 95 95 97 97 97 97 97 98 96 97 96 92 76 76 90 96 97 99 91 97 98 95 97 98 90 74 66 64 61 54 32 15 12 11
49 37 23 30 40 48 54 45 43 94 97 97 97 95 96 99 96 95 96 96 90 88 80 98 96 97 93 97 100 97 96 97 95 89 79 69 68 48 26 14 12 11 10
36 30 36 55 64 65 61 50 38 90 97 97 96 96 97 96 96 96 96 96 94 91 94 98 96 93 96 98 99 96 98 93 84 75 64 47 28 20 15 14 12 13 14
44 43 51 54 47 48 49 44 42 65 95 95 96 98 98 98 97 98 97 100 98 97 96 98 92 94 96 96 98 98 88 83 75 80 57 28 22 17 14 12 14 23 27
68 61 54 46 41 47 40 39 38 44 82 97 96 97 96 97 97 93 96 96 97 96 97 95 94 96 94 95 100 97 87 87 86 81 49 28 30 16 15 24 32 46 62
60 56 47 41 43 63 71 63 58 50 82 97 95 96 94 95 97 95 95 96 96 97 97 96 97 94 91 91 93 94 96 93 65 37 38 27 17 19 29 32 34 61 65
54 38 28 39 50 88 78 72 74 100 94 95 89 81 82 90 97 97 97 96 97 97 100 96 92 93 94 96 98 94 82 58 52 42 27 20 17 22 21 29 50 65 66
54 29 17 36 71 86 97 99 97 91 97 96 91 88 73 78 86 99 96 96 96 95 95 98 96 95 97 97 96 97 93 90 74 32 22 19 18 24 26 51 70 73 62
33 34 19 14 31 65 90 96 78 72 86 86 87 80 72 90 97 98 95 97 97 97 96 97 99 94 95 97 99 98 95 51 28 25 23 23 33 54 64 68 71 71 66
22 20 19 12 9 10 29 50 60 65 65 74 98 90 99 98 96 98 95 94 98 98 97 97 96 98 97 98 94 85 68 45 25 23 27 32 64 70 60 79 75 69 33
17 14 13 12 12 10 8 14 20 33 55 76 96 97 97 97 97 97 96 97 97 96 94 100 91 93 95 91 95 89 75 49 36 46 78 84 71 64 65 100 57 41 11
27 25 18 18 19 18 18 12 12 23 22 48 72 66 59 58 58 62 65 65 72 73 74 72 79 84 92 93 100 95 92 71 66 77 76 70 62 50 28 18 10 12 16

GFSSE_500_rhum_078.txt.gz
RH
5 5 5 6 14 24 54 53 98 96 87 53 47 52 75 92 98 83 62 50 44 42 45 47 50 55 59 54 52 53 49 41 34 31 29 30 33 33 32 26 20 18 16
15 20 15 11 14 27 53 50 71 94 86 79 63 54 67 96 92 82 64 52 48 46 46 51 51 54 52 49 45 41 38 37 32 31 29 30 32 34 31 27 23 22 18
28 37 32 22 20 39 68 70 51 77 94 96 95 79 81 73 96 97 95 80 60 60 54 50 45 47 50 49 44 42 39 38 39 34 29 26 30 34 33 29 24 26 23
33 51 51 42 44 55 56 56 68 71 84 88 73 69 94 99 96 95 94 79 59 49 48 48 52 49 49 50 47 43 45 46 44 37 31 30 34 33 33 33 29 28 22
39 49 54 66 64 71 76 87 48 54 64 68 68 61 80 92 96 97 94 77 57 52 55 52 51 49 50 56 53 49 48 48 47 41 37 25 32 38 38 31 26 25 23
48 66 91 73 88 78 64 94 98 78 48 52 58 54 63 91 97 96 96 91 67 61 58 54 51 52 51 47 46 53 58 58 57 51 45 26 34 34 38 28 26 24 21
54 67 76 85 89 73 75 91 96 96 92 69 65 69 66 75 85 84 95 90 73 74 78 54 56 65 69 70 71 70 67 66 64 61 42 34 25 31 50 30 26 22 17
49 50 52 68 92 65 97 72 97 94 87 96 95 90 73 74 82 97 88 95 90 93 64 61 61 64 66 73 71 72 73 79 79 66 53 31 54 57 58 29 25 19 15
59 68 76 85 92 72 82 87 88 89 96 97 92 96 84 90 80 96 97 95 93 83 63 55 61 64 74 75 77 78 78 91 90 82 64 34 93 85 34 27 23 17 12
51 68 68 97 95 88 72 71 77 81 95 96 94 96 96 89 84 96 96 94 83 88 71 62 59 70 77 70 81 85 82 83 86 90 46 62 98 68 31 27 24 17 12
61 59 59 93 97 96 86 90 93 95 84 82 96 96 97 96 98 86 95 97 81 88 72 65 63 70 74 71 82 90 92 87 89 96 75 90 90 41 29 27 25 19 13
40 37 66 66 93 93 96 95 92 79 79 76 91 96 97 96 90 93 96 97 78 80 76 67 64 67 76 77 91 93 94 87 88 89 94 92 85 31 30 31 25 19 17
33 38 39 51 64 84 96 97 67 56 54 68 98 97 96 97 96 95 96 92 82 89 81 66 67 76 70 82 85 89 95 94 86 81 87 92 79 35 32 30 25 27 25
38 36 22 32 35 38 55 57 46 54 51 88 98 96 96 96 97 98 96 98 97 92 80 73 66 73 82 92 86 94 91 87 87 86 81 87 50 34 44 33 42 38 23
41 40 36 29 33 37 41 40 40 42 56 96 96 96 96 91 97 96 97 97 96 93 80 71 67 84 91 94 93 97 85 85 93 90 87 87 67 82 55 52 66 35 18
30 47 47 43 23 28 38 40 42 37 66 95 95 96 97 96 97 96 96 97 95 94 89 83 70 85 83 98 95 96 88 92 93 92 94 97 85 72 75 85 60 25 13
36 33 29 24 27 49 52 49 56 46 67 90 97 97 97 96 97 96 94 94 96 96 94 88 74 78 94 98 91 88 89 90 95 94 94 93 86 82 87 45 17 24 20
44 35 29 33 45 54 45 39 42 44 67 96 98 98 97 97 97 96 97 96 96 96 96 95 95 100 99 97 91 86 87 95 95 98 96 87 67 51 26 43 41 25 14
48 48 40 34 49 42 35 32 32 45 68 94 97 97 94 95 96 96 96 96 97 96 95 96 98 97 98 96 93 88 88 93 90 89 84 80 51 55 42 62 34 16 22
67 58 52 46 35 33 32 30 36 39 64 84 96 96 98 97 96 95 96 97 97 84 86 97 97 98 96 95 84 88 91 92 89 88 90 95 92 52 87 35 17 24 36
58 51 27 33 35 39 46 41 45 40 44 76 95 96 96 97 96 97 97 97 96 92 96 96 97 98 94 86 94 94 94 95 94 94 93 75 80 80 44 17 18 25 22
51 31 19 24 64 61 78 72 68 71 98 97 97 96 96 96 96 97 97 96 97 92 94 99 96 93 90 93 95 96 94 97 94 87 71 80 69 37 21 21 26 37 47
33 34 24 12 31 68 92 88 89 82 83 90 95 96 96 95 96 94 94 96 97 96 96 97 95 94 94 96 95 97 98 98 95 83 82 64 45 26 25 25 34 48 56
15 22 21 12 10 10 39 56 66 68 56 76 96 90 98 99 94 97 95 92 94 94 98 98 94 94 90 93 95 96 96 100 100 100 58 33 29 26 26 24 49 65 67
19 11 10 10 10 14 7 12 19 36 61 55 66 84 93 99 94 94 92 99 92 91 96 96 97 96 86 86 87 88 93 97 100 91 60 57 39 27 42 65 74 63 53
26 23 24 21 17 16 14 8 8 16 19 48 69 67 89 80 87 93 88 94 95 94 98 96 97 89 83 80 93 94 84 86 96 94 67 45 63 83 85 89 79 64 31

GFSSE_500_rhum_081.txt.gz
RH
4 3 5 4 5 5 7 9 11 12 32 60 76 66 46 83 85 90 96 88 79 53 48 46 48 51 51 51 51 51 51 46 39 33 30 29 29 32 33 30 22 21 19
5 4 15 16 20 14 9 16 17 17 46 97 97 80 49 61 74 95 90 79 74 53 48 48 52 56 53 52 51 49 44 36 35 30 28 24 27 31 33 31 25 20 19
6 8 21 26 29 28 21 22 23 36 30 81 92 87 64 54 68 93 93 86 64 58 55 52 54 51 47 46 46 42 39 37 33 32 31 28 29 32 33 29 21 17 20
8 18 39 38 41 41 36 39 46 47 30 52 91 97 80 68 73 95 85 78 71 67 70 57 64 67 62 53 49 43 40 38 40 34 35 33 33 34 31 24 20 20 22
12 24 37 40 50 61 47 44 46 66 51 56 73 96 78 95 76 80 92 94 93 94 93 75 59 52 50 50 51 50 45 45 45 45 43 41 37 24 27 25 26 22 24
14 21 29 49 66 79 68 82 87 67 100 56 76 92 72 69 96 99 97 88 89 80 69 58 54 52 51 53 59 54 53 56 54 54 52 47 39 21 27 36 30 29 26
9 14 21 41 58 49 57 97 98 97 96 97 72 74 66 62 74 94 96 78 90 80 68 61 61 54 53 51 48 49 54 62 61 60 58 55 44 25 31 37 37 27 24
23 19 23 47 83 72 97 70 94 90 91 96 85 87 77 78 54 68 97 84 87 85 75 85 87 58 60 61 64 65 69 67 64 64 67 61 48 39 59 48 39 29 20
35 25 24 42 93 92 79 89 96 93 95 96 97 92 92 92 71 65 96 88 97 87 81 87 83 66 62 59 62 67 72 68 64 68 87 74 60 37 83 64 28 23 18
24 21 34 41 91 72 84 95 96 94 96 95 85 97 87 96 82 62 70 74 86 88 76 93 75 74 63 63 71 77 73 68 70 69 76 85 65 52 83 56 27 23 18
29 36 28 26 59 92 92 96 93 97 91 96 96 92 95 96 97 85 80 98 97 93 89 77 79 80 70 68 73 77 80 81 84 81 83 90 76 66 90 54 28 25 19
27 24 16 21 34 86 87 75 72 85 94 86 93 84 97 96 96 94 92 96 97 96 93 73 80 81 72 70 78 78 86 90 89 81 79 77 80 86 83 53 30 28 22
21 23 25 23 20 25 92 86 78 83 93 86 73 73 94 96 96 98 91 97 96 89 88 72 79 84 74 70 77 85 83 91 89 82 83 76 77 81 90 56 37 29 22
29 28 27 22 16 21 26 86 98 98 77 64 73 80 95 96 97 96 88 96 96 99 89 78 85 88 84 73 79 85 86 83 82 83 88 90 82 78 87 54 32 30 23
35 29 28 34 37 22 29 30 46 54 46 46 60 65 89 93 96 96 95 96 97 96 95 80 91 88 84 71 77 94 94 93 87 86 83 87 87 85 71 33 41 45 42
28 26 26 31 30 29 20 25 34 36 35 39 49 92 93 94 95 96 97 95 97 97 98 86 94 89 77 72 73 99 97 84 82 84 84 89 89 89 70 57 72 76 81
26 31 35 32 27 25 24 30 45 46 45 39 62 97 94 84 96 92 96 94 96 95 98 97 92 87 78 82 83 96 98 98 94 84 84 87 91 91 90 81 79 86 78
29 37 44 37 29 29 35 42 42 42 40 41 55 94 96 92 96 98 96 96 97 95 96 98 95 93 84 97 93 96 98 96 88 78 78 80 83 89 88 82 85 40 61
31 44 45 44 36 28 26 35 32 32 34 38 66 79 80 95 97 96 97 96 97 96 94 96 95 96 96 95 98 92 96 90 89 84 81 83 90 89 84 65 56 74 52
30 47 50 51 46 36 32 29 28 30 33 44 81 96 98 97 97 96 95 96 96 96 96 96 95 97 96 97 98 97 88 92 96 95 92 87 88 87 46 71 52 80 58
31 41 49 31 34 31 32 27 27 31 39 54 85 96 97 96 96 96 96 96 96 95 96 97 98 98 97 97 93 97 92 92 95 89 86 86 88 87 95 81 75 59 25
30 42 28 16 36 52 51 44 37 37 46 48 80 96 97 97 98 98 95 95 96 94 97 98 97 97 97 97 96 95 98 97 90 86 92 94 90 89 84 80 65 39 20
23 34 27 16 16 47 62 72 80 76 83 90 85 96 97 96 96 96 96 96 95 96 96 94 95 96 92 91 96 93 97 98 95 90 92 92 84 66 74 62 47 27 19
15 18 24 16 11 9 16 56 66 69 74 79 86 96 96 96 95 96 95 95 97 92 92 97 96 96 96 95 96 97 97 99 94 95 90 87 85 82 62 34 26 24 24
30 20 11 10 11 15 11 7 11 25 36 60 62 92 96 96 96 96 90 85 95 95 96 94 91 94 95 97 97 94 98 96 96 91 98 99 93 74 64 48 33 23 31
24 28 21 22 22 15 15 13 7 6 9 19 66 63 80 85 82 90 80 86 97 96 98 98 97 96 97 98 97 95 95 96 94 91 99 93 94 95 87 66 57 76 69

GFSSE_500_rhum_084.txt.gz
RH
12 11 13 5 3 4 5 4 5 7 6 7 13 17 26 29 41 93 84 85 74 83 84 58 50 47 44 44 43 44 45 46 46 40 30 29 29 30 32 32 30 21 17
5 14 7 5 11 14 14 16 15 8 8 9 10 16 36 50 46 87 89 89 91 88 80 62 52 50 50 49 50 50 50 46 37 28 27 28 28 30 32 32 27 21 17
6 7 6 6 15 26 26 24 25 19 16 14 23 49 90 83 57 62 86 82 86 94 68 65 55 53 53 51 52 49 48 40 33 29 30 29 33 30 30 27 27 22 17
5 6 8 14 27 32 35 41 44 33 35 30 23 32 86 89 67 55 68 76 86 82 77 68 59 56 55 50 48 45 44 39 39 35 40 38 32 29 29 31 28 26 22
5 6 12 18 25 25 41 52 55 46 49 77 59 76 72 97 86 67 58 62 88 88 89 78 59 57 56 66 73 62 60 49 43 44 44 41 39 30 26 37 38 37 36
12 7 11 19 24 31 41 52 70 73 55 76 72 96 100 95 90 85 84 80 89 89 80 91 64 76 83 73 57 48 50 47 48 53 51 49 46 42 30 41 44 39 37
26 19 16 19 21 29 48 84 99 91 96 95 96 94 79 90 82 98 96 94 92 96 87 95 93 70 62 55 50 55 55 52 53 56 58 53 51 49 40 36 39 52 37
25 29 25 31 21 25 51 94 99 99 92 90 96 96 92 89 73 92 89 97 95 98 91 88 75 67 66 57 51 50 48 50 59 62 58 56 58 55 49 52 56 58 32
25 28 23 24 23 48 61 96 85 84 90 96 95 95 96 81 84 67 75 96 99 95 90 81 71 88 92 67 61 60 59 63 67 63 62 69 76 70 54 57 85 54 30
32 27 23 33 35 32 63 84 81 70 94 95 97 96 97 92 95 75 64 72 87 96 94 97 90 87 93 77 67 62 59 62 66 69 68 65 65 76 68 54 81 60 34
32 20 25 19 16 35 46 86 84 80 95 93 98 97 94 66 85 97 82 67 80 95 94 95 86 91 82 76 67 63 70 68 69 70 74 74 77 77 74 64 80 66 37
23 24 18 14 18 18 34 66 81 87 96 95 95 95 96 96 96 97 97 76 67 74 91 94 84 95 82 77 67 64 71 66 82 76 80 77 78 78 75 74 82 73 40
18 29 25 20 21 15 17 34 76 73 83 97 89 95 96 97 97 97 97 95 68 94 99 93 88 96 75 75 71 74 72 75 82 87 86 82 81 80 76 82 83 80 40
16 17 28 24 25 29 20 22 37 76 87 92 96 93 90 93 96 97 98 95 83 84 98 97 93 94 71 68 71 75 78 82 88 89 95 89 87 91 90 81 85 78 57
15 18 29 23 24 26 28 21 27 37 84 93 98 86 85 88 94 97 92 97 88 97 96 97 99 88 72 63 75 76 77 88 98 95 98 95 82 80 82 83 83 66 32
19 23 24 21 24 23 24 24 20 27 29 44 58 62 65 68 87 95 97 98 77 97 97 96 98 95 77 68 73 83 81 83 98 92 93 88 84 72 81 86 79 45 31
18 20 17 22 29 23 24 25 22 20 29 35 32 30 35 53 75 94 98 95 96 96 97 97 100 88 82 74 79 74 77 82 89 98 97 93 78 75 82 83 81 58 70
20 18 17 18 24 30 26 24 28 31 40 39 43 32 32 63 84 86 97 98 97 97 94 97 96 96 92 83 92 83 80 93 92 89 88 94 86 84 84 90 94 87 70
20 20 20 20 26 33 34 27 24 25 32 36 38 42 48 66 97 92 95 95 96 89 95 96 96 97 97 94 94 92 92 96 91 91 89 90 91 91 87 93 93 83 87
21 19 21 26 40 43 39 29 25 24 26 30 35 36 54 95 95 98 97 97 95 89 96 95 96 96 93 96 94 95 97 96 97 92 94 94 96 98 96 96 88 77 75
20 19 24 32 36 32 32 30 26 21 23 30 41 42 61 90 95 96 97 97 97 95 90 95 95 96 96 96 96 97 96 96 96 95 95 95 97 90 93 87 81 68 74
21 20 27 30 22 22 40 38 45 31 30 32 38 81 89 96 98 98 96 96 95 96 97 92 98 96 97 99 98 95 95 95 96 94 96 96 96 92 86 86 89 95 82
23 18 22 28 20 18 19 41 70 66 68 68 66 99 93 95 94 92 89 97 96 96 96 92 87 86 94 95 98 96 94 97 95 95 95 95 92 91 88 85 78 77 73
28 23 15 16 19 17 14 10 23 42 54 64 76 94 95 94 96 96 96 96 96 91 78 83 93 95 96 96 96 96 96 96 93 94 95 88 86 85 84 74 68 59 44
22 24 18 17 17 17 11 12 8 7 13 44 50 67 95 96 90 89 95 90 87 86 89 89 90 93 94 98 94 96 98 98 98 100 98 96 95 90 83 80 70 66 63
18 17 16 17 16 19 20 16 16 10 6 12 30 44 62 80 82 91 91 84 72 78 86 90 91 98 97 97 94 96 97 97 97 96 97 92 98 93 96 91 82 80 72